Wind_Speed
13 12 11 14 5 17 16 14 15 20 27 33 34 30 25 15 10 14 23 19 20 28 29 29 28 28 29 29 28 28 29 28 28 26 22 21 21 22 26 26 26 26 23 20
7 5 9 14 7 13 20 23 21 21 29 32 28 25 23 19 14 14 20 20 26 27 29 30 30 32 34 31 30 30 30 32 30 28 25 23 24 25 25 24 26 24 22 20
14 7 8 11 4 4 15 20 25 25 26 31 19 18 18 25 9 16 26 24 26 28 32 29 31 35 34 32 30 30 31 31 30 28 25 24 25 26 24 24 23 22 19 20
19 21 7 10 3 6 14 22 21 13 23 22 16 12 11 15 15 9 25 13 26 27 30 33 36 37 35 32 30 31 31 29 27 26 25 23 23 24 22 23 22 20 18 17
10 13 12 10 12 10 13 17 18 16 21 26 22 21 13 10 14 15 21 21 24 28 27 33 37 38 36 34 33 34 32 26 25 26 24 23 24 20 22 19 19 22 21 18
17 12 12 10 13 13 11 20 17 18 23 25 27 24 19 16 13 5 19 18 25 30 28 31 35 37 37 36 36 35 31 30 32 30 28 23 20 21 24 21 20 20 19 18
17 16 12 11 13 10 9 10 19 20 18 29 30 35 32 17 14 35 27 25 29 29 31 33 41 34 41 40 38 36 33 33 32 30 34 12 15 17 22 21 20 16 16 15
13 15 15 12 4 7 11 12 19 25 27 26 23 19 22 25 22 19 28 31 30 33 35 38 35 34 49 44 41 35 33 33 30 19 26 17 21 19 18 20 17 14 16 16
10 11 11 15 9 7 13 19 23 27 23 18 16 17 23 23 26 11 31 27 31 35 38 38 38 40 41 45 40 35 31 33 30 24 25 24 30 17 13 20 17 16 14 15
8 12 13 16 11 11 14 18 19 15 20 17 15 16 16 18 25 20 24 26 32 37 38 40 38 38 41 42 42 35 30 27 29 26 23 21 19 10 18 15 17 16 16 16
13 11 12 17 15 15 14 18 15 16 16 16 11 15 20 20 22 28 31 37 39 39 40 41 40 41 42 43 44 39 34 29 27 27 25 24 24 21 17 17 19 16 15 16
11 13 9 17 21 23 20 13 9 7 12 8 11 18 20 24 26 27 31 34 37 40 44 44 43 44 47 41 41 42 38 35 31 26 26 27 24 22 20 21 21 17 17 15
16 12 9 10 15 13 5 9 3 7 11 12 16 20 24 28 29 29 32 35 40 44 45 46 46 47 50 50 46 45 42 34 32 28 26 24 23 23 23 26 26 22 20 17
17 12 14 10 12 11 6 8 9 6 7 9 14 17 22 25 24 28 33 35 39 42 45 46 48 50 54 54 50 43 46 37 31 26 24 20 21 21 24 29 27 26 23 20
12 16 15 13 12 12 16 11 11 9 13 12 15 17 26 27 26 29 31 34 38 41 44 47 49 51 53 49 47 46 24 45 22 31 23 23 21 21 26 30 32 26 23 23
15 16 15 11 15 20 17 18 14 20 21 20 25 18 22 23 25 29 31 33 36 39 43 48 47 44 47 45 41 29 24 46 33 40 17 18 23 17 26 28 27 22 25 25
20 9 14 15 17 17 16 18 19 19 23 21 20 18 22 24 28 31 34 37 40 42 47 51 51 44 43 42 45 41 39 31 33 36 29 18 21 26 26 29 38 26 25 25
24 14 16 17 13 14 15 17 23 9 12 15 18 18 21 25 29 34 38 41 43 45 46 51 49 44 42 38 38 39 44 39 38 37 38 29 28 19 19 27 36 26 23 28
10 14 15 15 13 11 15 15 10 19 9 15 16 19 22 25 30 34 38 42 43 44 50 50 46 42 44 37 36 37 38 36 37 36 26 28 31 33 31 33 31 23 26 20
11 20 18 13 12 13 15 15 13 11 13 18 19 22 25 28 32 36 40 43 45 48 51 50 44 40 42 34 35 34 35 34 36 34 32 31 30 29 30 29 20 19 16 19
13 13 9 14 17 19 17 19 16 17 20 26 27 28 30 32 36 40 43 43 46 51 52 48 41 39 41 34 37 35 36 33 35 33 32 35 32 28 18 16 14 13 17 22
15 16 16 19 18 21 20 19 20 22 25 26 28 30 34 36 39 40 42 44 49 54 51 43 40 38 36 36 34 35 33 32 33 32 32 36 34 24 25 25 20 22 26 29
17 19 22 24 25 24 23 23 24 22 26 28 29 31 35 38 39 40 43 47 53 52 47 43 42 39 34 33 34 35 34 34 36 34 33 31 32 27 27 26 26 29 32 33
28 26 26 26 27 25 27 25 25 27 30 31 32 35 37 40 41 43 46 48 52 50 45 44 43 39 35 34 34 36 36 37 37 37 37 35 35 34 30 31 31 34 37 37
37 34 34 35 33 32 23 20 26 30 34 34 34 35 39 43 44 46 48 48 48 47 42 42 39 35 31 32 34 36 38 38 37 36 35 35 32 31 33 35 38 40 41 42
39 38 38 36 33 30 39 35 33 37 38 36 37 37 42 44 45 46 48 49 47 44 43 41 37 32 31 33 35 36 38 38 36 35 34 33 34 36 37 40 42 46 46 45
Wind_Direction
136 134 88 71 7 338 335 353 327 345 348 340 337 332 335 355 54 74 71 39 33 23 17 7 0 358 359 2 353 346 340 333 330 324 321 312 308 315 322 332 328 326 327 324
225 120 108 96 27 350 336 334 336 337 338 327 322 334 327 348 336 50 50 37 22 22 17 5 360 359 360 357 348 342 340 336 330 325 316 314 315 319 325 332 326 327 326 326
219 221 159 122 287 320 323 319 326 319 321 329 331 329 344 345 351 49 28 36 22 12 13 4 1 359 354 351 344 343 342 337 332 327 317 313 316 322 328 327 330 326 325 326
233 264 222 179 259 308 331 328 322 327 323 315 1 349 22 19 26 7 19 14 17 15 7 2 357 353 350 345 344 344 343 338 332 327 320 319 316 318 323 330 331 325 325 322
236 267 246 259 230 269 311 301 307 317 328 316 320 333 326 23 8 360 18 45 26 24 8 358 354 352 351 348 345 345 346 345 340 329 320 315 312 312 319 325 330 327 321 326
244 259 270 284 251 269 269 294 312 311 316 318 325 336 331 3 347 303 47 27 23 18 12 354 352 353 357 349 345 348 351 352 352 344 326 310 315 319 321 330 328 325 322 325
253 243 232 270 274 258 249 283 292 311 321 332 329 340 339 358 333 7 17 15 15 17 10 358 353 356 350 350 348 348 350 355 349 342 341 312 301 308 322 321 324 324 322 324
269 234 218 233 306 357 292 279 286 310 320 325 334 332 342 357 347 34 16 354 3 11 10 4 359 357 345 349 347 347 346 346 343 331 347 344 307 301 319 323 326 327 325 320
262 191 204 237 241 228 280 283 289 297 305 322 329 327 334 9 12 349 359 354 0 2 7 359 356 354 347 345 346 343 343 339 334 335 339 336 322 283 312 317 323 324 321 316
259 192 231 235 244 272 281 291 290 317 304 310 316 321 340 346 8 355 348 3 1 1 358 351 352 348 348 344 343 341 337 339 332 339 336 338 351 338 335 318 317 318 314 315
292 295 267 247 245 265 285 292 288 304 308 299 309 331 340 336 347 351 0 2 0 357 352 345 346 343 351 350 341 337 336 334 334 335 339 329 327 332 330 322 312 310 313 320
310 291 279 252 247 264 280 293 296 336 345 303 321 326 331 349 355 357 360 360 354 352 351 345 342 342 346 349 337 333 337 333 329 328 329 336 333 333 326 320 318 318 310 311
298 289 252 245 258 275 236 233 249 318 338 302 304 313 333 349 356 350 354 353 352 352 349 344 340 341 342 342 340 332 330 331 327 320 330 339 334 337 331 334 327 318 307 311
282 263 260 256 246 243 207 265 270 270 263 292 313 320 337 345 344 342 349 346 347 347 346 343 339 338 338 343 332 327 325 323 324 319 315 329 335 335 342 338 319 309 308 311
264 247 255 274 274 286 215 238 275 270 267 285 303 323 333 337 338 341 340 337 337 337 338 339 339 339 338 337 337 318 330 300 306 306 300 305 317 324 339 337 325 311 310 295
253 269 279 271 269 266 246 243 276 291 278 298 298 323 321 328 333 334 329 331 330 330 331 337 340 334 337 333 345 340 290 347 327 313 289 319 339 318 326 331 326 304 290 289
265 264 241 258 263 253 240 245 257 258 277 288 302 309 317 329 328 323 326 329 328 329 330 336 341 335 337 334 331 338 331 337 334 342 305 307 303 331 331 330 324 289 286 286
239 272 290 271 249 231 239 247 266 307 306 281 272 299 321 317 321 324 326 326 329 328 329 334 337 333 335 335 333 333 334 331 337 330 324 319 336 307 303 309 316 286 279 285
282 306 283 287 270 238 229 246 269 257 296 303 303 309 310 319 319 320 322 324 324 325 331 335 333 333 330 333 326 334 331 331 333 329 333 317 324 317 314 311 315 299 285 289
302 312 282 271 258 246 243 253 268 285 293 307 302 309 314 318 317 321 324 324 325 329 334 335 333 330 331 334 337 332 330 328 332 331 328 320 322 317 312 310 317 315 293 292
274 297 260 262 256 259 258 270 289 291 299 307 311 313 315 321 322 322 323 323 324 329 332 332 330 331 329 326 334 333 327 326 336 333 331 338 339 338 354 344 336 308 296 293
263 265 276 264 256 263 273 286 295 305 307 308 305 313 316 320 318 319 322 321 327 331 330 331 329 326 323 326 331 332 330 333 336 340 332 333 335 343 340 339 328 317 311 306
263 268 271 277 280 281 286 287 287 287 291 295 303 310 315 316 315 318 322 326 327 329 329 330 328 324 323 328 331 333 335 335 335 334 336 332 331 333 330 329 324 316 310 309
263 270 273 273 278 274 281 285 287 282 291 298 306 312 316 313 315 319 322 324 326 326 329 328 326 324 326 329 329 330 333 333 332 331 332 330 329 323 323 322 320 315 312 310
264 269 275 285 288 293 274 295 290 291 295 303 310 319 314 315 318 318 318 322 323 326 327 325 322 320 321 324 325 328 330 330 330 331 330 329 328 327 320 316 315 314 313 311
260 265 270 278 284 281 293 295 297 299 302 308 313 315 310 312 313 315 318 322 323 324 325 323 321 317 320 324 326 326 326 327 330 331 329 327 323 318 317 315 312 311 311 311
Height
5954 5952 5951 5951 5952 5952 5951 5945 5945 5944 5939 5935 5931 5930 5929 5926 5923 5920 5912 5914 5910 5907 5904 5901 5900 5895 5890 5881 5876 5871 5865 5861 5856 5852 5847 5843 5840 5836 5832 5828 5824 5820 5816 5811
5956 5953 5951 5952 5953 5951 5947 5947 5945 5943 5938 5934 5931 5929 5925 5922 5917 5916 5914 5915 5910 5906 5900 5899 5895 5890 5884 5878 5873 5866 5861 5856 5852 5847 5844 5841 5837 5833 5828 5824 5821 5816 5812 5808
5955 5954 5950 5952 5951 5951 5949 5946 5944 5943 5939 5934 5930 5929 5925 5922 5917 5921 5920 5913 5909 5903 5897 5900 5893 5887 5882 5875 5869 5864 5858 5853 5847 5842 5838 5835 5833 5829 5825 5822 5816 5811 5808 5804
5952 5953 5952 5951 5950 5948 5947 5946 5944 5942 5938 5933 5932 5931 5929 5924 5924 5922 5913 5911 5912 5906 5900 5897 5891 5886 5880 5873 5866 5860 5854 5849 5843 5837 5834 5831 5828 5824 5819 5815 5812 5808 5806 5803
5952 5950 5950 5949 5948 5947 5946 5944 5943 5942 5938 5931 5929 5932 5924 5921 5923 5919 5916 5912 5912 5906 5900 5895 5890 5885 5877 5870 5863 5855 5850 5846 5839 5834 5829 5827 5824 5820 5816 5813 5808 5805 5801 5799
5949 5947 5948 5947 5945 5944 5944 5940 5939 5939 5935 5931 5926 5926 5921 5918 5916 5911 5909 5910 5908 5904 5900 5895 5889 5881 5875 5868 5861 5853 5848 5843 5837 5831 5826 5823 5820 5818 5815 5811 5807 5803 5798 5795
5944 5945 5946 5943 5941 5940 5939 5938 5937 5936 5933 5928 5923 5920 5922 5917 5913 5912 5912 5908 5903 5901 5899 5890 5883 5877 5874 5867 5857 5850 5844 5840 5834 5828 5821 5816 5815 5812 5809 5806 5802 5800 5797 5794
5939 5941 5942 5939 5939 5937 5938 5936 5935 5933 5931 5928 5923 5922 5918 5917 5914 5912 5910 5905 5903 5897 5890 5886 5881 5876 5868 5862 5854 5847 5841 5836 5831 5826 5822 5817 5815 5810 5805 5802 5798 5796 5794 5790
5937 5938 5937 5937 5936 5936 5935 5934 5933 5931 5928 5926 5923 5921 5914 5913 5910 5908 5907 5904 5899 5894 5885 5886 5879 5874 5867 5857 5852 5844 5839 5833 5828 5825 5820 5814 5808 5804 5803 5797 5794 5791 5791 5788
5935 5936 5936 5935 5934 5933 5932 5931 5931 5929 5926 5923 5921 5918 5914 5913 5911 5910 5907 5902 5897 5889 5883 5882 5878 5871 5864 5855 5849 5843 5837 5832 5824 5822 5818 5811 5804 5803 5799 5796 5792 5789 5787 5784
5932 5932 5933 5931 5933 5931 5931 5929 5928 5926 5923 5919 5917 5915 5914 5914 5910 5905 5898 5894 5890 5887 5883 5878 5873 5867 5862 5853 5844 5837 5830 5825 5820 5817 5812 5807 5803 5798 5794 5792 5789 5785 5782 5778
5931 5930 5929 5929 5928 5928 5928 5927 5926 5923 5920 5917 5915 5913 5911 5912 5909 5903 5899 5894 5891 5886 5879 5873 5867 5861 5856 5851 5841 5831 5825 5818 5813 5811 5806 5800 5798 5794 5791 5789 5786 5779 5776 5772
5929 5928 5927 5927 5928 5926 5923 5921 5919 5921 5919 5917 5914 5914 5911 5907 5903 5900 5896 5890 5886 5881 5874 5867 5860 5854 5850 5845 5836 5825 5817 5813 5807 5803 5802 5796 5793 5790 5789 5787 5780 5776 5774 5769
5925 5925 5924 5925 5926 5925 5923 5920 5919 5918 5916 5913 5913 5911 5910 5906 5903 5898 5893 5888 5883 5878 5872 5864 5855 5851 5843 5838 5827 5819 5811 5804 5800 5797 5795 5792 5791 5787 5781 5776 5772 5769 5768 5764
5922 5922 5922 5922 5923 5923 5921 5919 5917 5913 5913 5912 5913 5909 5906 5903 5899 5895 5892 5888 5882 5877 5870 5863 5855 5847 5839 5831 5818 5804 5796 5792 5785 5788 5787 5786 5784 5781 5777 5771 5766 5763 5761 5757
5919 5919 5920 5921 5919 5919 5919 5916 5914 5913 5911 5912 5911 5907 5905 5901 5898 5896 5892 5888 5882 5875 5866 5859 5854 5846 5838 5827 5817 5806 5793 5792 5784 5781 5777 5780 5778 5776 5772 5766 5760 5756 5752 5751
5916 5913 5915 5916 5914 5913 5914 5913 5910 5911 5910 5909 5908 5907 5903 5898 5895 5892 5887 5882 5876 5869 5859 5852 5847 5840 5834 5826 5815 5807 5799 5795 5788 5783 5777 5773 5771 5768 5765 5761 5757 5750 5747 5744
5911 5910 5910 5909 5909 5910 5910 5910 5909 5910 5909 5908 5907 5903 5899 5896 5891 5886 5881 5875 5869 5861 5855 5847 5839 5833 5826 5819 5813 5805 5795 5788 5782 5776 5771 5765 5765 5762 5759 5753 5748 5743 5741 5739
5906 5905 5905 5904 5905 5907 5907 5907 5908 5908 5906 5906 5902 5899 5896 5893 5888 5883 5877 5870 5865 5857 5850 5842 5834 5828 5820 5815 5809 5803 5796 5789 5781 5774 5769 5764 5758 5755 5751 5746 5741 5736 5735 5733
5900 5897 5900 5900 5900 5900 5903 5904 5904 5905 5906 5902 5900 5896 5891 5888 5884 5877 5871 5864 5856 5851 5844 5834 5825 5819 5812 5807 5802 5797 5791 5784 5778 5772 5767 5761 5755 5747 5742 5738 5731 5728 5728 5726
5895 5895 5895 5896 5895 5896 5898 5896 5898 5898 5898 5893 5891 5887 5884 5880 5874 5868 5863 5856 5850 5843 5836 5829 5820 5812 5806 5802 5797 5790 5784 5777 5771 5764 5759 5752 5745 5739 5733 5730 5726 5725 5724 5721
5892 5892 5893 5892 5892 5891 5892 5890 5890 5889 5887 5886 5884 5881 5877 5873 5866 5861 5857 5849 5842 5834 5827 5822 5815 5808 5802 5796 5791 5785 5779 5772 5765 5759 5752 5747 5741 5735 5731 5727 5725 5722 5719 5715
5887 5888 5887 5888 5888 5889 5890 5890 5889 5886 5883 5881 5878 5874 5872 5866 5859 5854 5849 5842 5833 5826 5820 5814 5808 5802 5797 5790 5784 5778 5772 5766 5760 5754 5748 5743 5738 5733 5728 5724 5721 5718 5715 5710
5881 5882 5881 5882 5883 5883 5883 5884 5884 5882 5879 5877 5872 5868 5865 5858 5852 5846 5841 5835 5827 5820 5814 5807 5801 5794 5788 5783 5778 5773 5767 5761 5755 5748 5743 5738 5734 5729 5725 5722 5719 5714 5708 5702
5875 5877 5877 5876 5878 5878 5878 5875 5874 5873 5871 5868 5864 5861 5856 5849 5844 5839 5833 5828 5821 5814 5809 5802 5795 5789 5784 5779 5773 5768 5762 5756 5750 5744 5739 5734 5730 5726 5721 5716 5711 5705 5698 5692
5867 5869 5869 5870 5869 5869 5870 5868 5866 5863 5861 5858 5856 5854 5847 5842 5837 5831 5826 5820 5813 5807 5802 5795 5789 5783 5778 5773 5768 5763 5758 5752 5745 5740 5736 5731 5726 5720 5715 5709 5703 5695 5689 5683